"Datum-Uhrzeit","Datum","Uhrzeit","Fahrradfahrer inkl. Lastenr�der, Pulk, gleichzeitige Begegnung (stadteinw�rts)","Auto stadteinw�rts","Fahrradfahrer inkl. Lastenr�der, Pulk, gleichzeitige Begegnung (stadtausw�rts)","Auto stadtausw�rts"
"28.07.2020 00:00","2020-07-28","00:00",6,3,4,0
"28.07.2020 00:15","2020-07-28","00:15",10,0,3,1
"28.07.2020 00:30","2020-07-28","00:30",2,2,7,0
"28.07.2020 00:45","2020-07-28","00:45",5,3,1,0
"28.07.2020 01:00","2020-07-28","01:00",2,2,7,1
"28.07.2020 01:15","2020-07-28","01:15",4,0,3,0
"28.07.2020 01:30","2020-07-28","01:30",5,0,3,1
"28.07.2020 01:45","2020-07-28","01:45",4,0,0,0
"28.07.2020 02:00","2020-07-28","02:00",4,1,1,0
"28.07.2020 02:15","2020-07-28","02:15",2,0,0,0
"28.07.2020 02:30","2020-07-28","02:30",0,0,0,0
"28.07.2020 02:45","2020-07-28","02:45",1,0,0,0
"28.07.2020 03:00","2020-07-28","03:00",2,0,1,0
"28.07.2020 03:15","2020-07-28","03:15",1,0,0,1
"28.07.2020 03:30","2020-07-28","03:30",0,1,4,0
"28.07.2020 03:45","2020-07-28","03:45",1,0,0,0
"28.07.2020 04:00","2020-07-28","04:00",0,0,0,0
"28.07.2020 04:15","2020-07-28","04:15",0,0,0,0
"28.07.2020 04:30","2020-07-28","04:30",2,0,0,0
"28.07.2020 04:45","2020-07-28","04:45",0,0,1,0
"28.07.2020 05:00","2020-07-28","05:00",1,0,3,0
"28.07.2020 05:15","2020-07-28","05:15",5,0,1,0
"28.07.2020 05:30","2020-07-28","05:30",6,0,4,2
"28.07.2020 05:45","2020-07-28","05:45",6,0,5,0
"28.07.2020 06:00","2020-07-28","06:00",18,0,8,0
"28.07.2020 06:15","2020-07-28","06:15",14,0,11,0
"28.07.2020 06:30","2020-07-28","06:30",19,0,11,0
"28.07.2020 06:45","2020-07-28","06:45",23,0,23,1
"28.07.2020 07:00","2020-07-28","07:00",29,1,25,3
"28.07.2020 07:15","2020-07-28","07:15",35,3,42,3
"28.07.2020 07:30","2020-07-28","07:30",36,5,94,2
"28.07.2020 07:45","2020-07-28","07:45",58,2,74,2
"28.07.2020 08:00","2020-07-28","08:00",34,1,76,2
"28.07.2020 08:15","2020-07-28","08:15",74,1,63,1
"28.07.2020 08:30","2020-07-28","08:30",55,1,81,2
"28.07.2020 08:45","2020-07-28","08:45",97,2,52,1
"28.07.2020 09:00","2020-07-28","09:00",66,1,48,1
"28.07.2020 09:15","2020-07-28","09:15",65,2,55,1
"28.07.2020 09:30","2020-07-28","09:30",66,1,56,1
"28.07.2020 09:45","2020-07-28","09:45",65,1,72,1
"28.07.2020 10:00","2020-07-28","10:00",67,1,59,1
"28.07.2020 10:15","2020-07-28","10:15",59,1,57,1
"28.07.2020 10:30","2020-07-28","10:30",46,1,60,1
"28.07.2020 10:45","2020-07-28","10:45",74,2,65,1
"28.07.2020 11:00","2020-07-28","11:00",63,2,68,2
"28.07.2020 11:15","2020-07-28","11:15",66,2,81,1
"28.07.2020 11:30","2020-07-28","11:30",63,2,83,2
"28.07.2020 11:45","2020-07-28","11:45",72,2,87,2
"28.07.2020 12:00","2020-07-28","12:00",53,2,89,1
"28.07.2020 12:15","2020-07-28","12:15",76,1,59,1
"28.07.2020 12:30","2020-07-28","12:30",80,2,91,2
"28.07.2020 12:45","2020-07-28","12:45",50,1,75,1
"28.07.2020 13:00","2020-07-28","13:00",70,2,80,1
"28.07.2020 13:15","2020-07-28","13:15",53,1,71,1
"28.07.2020 13:30","2020-07-28","13:30",51,1,58,1
"28.07.2020 13:45","2020-07-28","13:45",60,1,49,1
"28.07.2020 14:00","2020-07-28","14:00",42,2,64,1
"28.07.2020 14:15","2020-07-28","14:15",48,1,59,1
"28.07.2020 14:30","2020-07-28","14:30",56,2,57,1
"28.07.2020 14:45","2020-07-28","14:45",65,1,58,1
"28.07.2020 15:00","2020-07-28","15:00",55,1,60,2
"28.07.2020 15:15","2020-07-28","15:15",70,1,70,2
"28.07.2020 15:30","2020-07-28","15:30",48,1,45,1
"28.07.2020 15:45","2020-07-28","15:45",40,1,51,1
"28.07.2020 16:00","2020-07-28","16:00",66,1,68,1
"28.07.2020 16:15","2020-07-28","16:15",69,2,73,1
"28.07.2020 16:30","2020-07-28","16:30",58,1,60,1
"28.07.2020 16:45","2020-07-28","16:45",61,2,47,1
"28.07.2020 17:00","2020-07-28","17:00",67,2,82,2
"28.07.2020 17:15","2020-07-28","17:15",61,2,73,1
"28.07.2020 17:30","2020-07-28","17:30",82,1,89,2
"28.07.2020 17:45","2020-07-28","17:45",60,2,77,1
"28.07.2020 18:00","2020-07-28","18:00",63,1,74,2
"28.07.2020 18:15","2020-07-28","18:15",58,1,70,2
"28.07.2020 18:30","2020-07-28","18:30",51,1,73,1
"28.07.2020 18:45","2020-07-28","18:45",55,1,82,2
"28.07.2020 19:00","2020-07-28","19:00",57,1,58,1
"28.07.2020 19:15","2020-07-28","19:15",46,1,47,1
"28.07.2020 19:30","2020-07-28","19:30",49,2,42,1
"28.07.2020 19:45","2020-07-28","19:45",42,1,52,1
"28.07.2020 20:00","2020-07-28","20:00",26,0,51,1
"28.07.2020 20:15","2020-07-28","20:15",35,1,32,1
"28.07.2020 20:30","2020-07-28","20:30",25,1,41,0
"28.07.2020 20:45","2020-07-28","20:45",22,1,26,1
"28.07.2020 21:00","2020-07-28","21:00",27,0,23,0
"28.07.2020 21:15","2020-07-28","21:15",21,0,28,0
"28.07.2020 21:30","2020-07-28","21:30",27,0,19,0
"28.07.2020 21:45","2020-07-28","21:45",31,1,21,1
"28.07.2020 22:00","2020-07-28","22:00",25,0,16,0
"28.07.2020 22:15","2020-07-28","22:15",21,0,21,0
"28.07.2020 22:30","2020-07-28","22:30",21,0,16,0
"28.07.2020 22:45","2020-07-28","22:45",12,0,12,0
"28.07.2020 23:00","2020-07-28","23:00",15,0,18,0
"28.07.2020 23:15","2020-07-28","23:15",13,0,11,0
"28.07.2020 23:30","2020-07-28","23:30",15,0,13,0
"28.07.2020 23:45","2020-07-28","23:45",11,0,5,0
"29.07.2020 00:00","2020-07-29","00:00",24,1,16,0
"29.07.2020 00:15","2020-07-29","00:15",7,0,8,0
"29.07.2020 00:30","2020-07-29","00:30",4,0,5,0
"29.07.2020 00:45","2020-07-29","00:45",11,0,2,0
"29.07.2020 01:00","2020-07-29","01:00",2,0,1,0
"29.07.2020 01:15","2020-07-29","01:15",4,0,4,0
"29.07.2020 01:30","2020-07-29","01:30",5,0,4,0
"29.07.2020 01:45","2020-07-29","01:45",2,0,1,0
"29.07.2020 02:00","2020-07-29","02:00",0,0,3,0
"29.07.2020 02:15","2020-07-29","02:15",1,0,1,0
"29.07.2020 02:30","2020-07-29","02:30",2,0,5,0
"29.07.2020 02:45","2020-07-29","02:45",0,0,0,0
"29.07.2020 03:00","2020-07-29","03:00",3,0,0,0
"29.07.2020 03:15","2020-07-29","03:15",0,0,0,0
"29.07.2020 03:30","2020-07-29","03:30",1,0,1,0
"29.07.2020 03:45","2020-07-29","03:45",1,0,1,0
"29.07.2020 04:00","2020-07-29","04:00",0,0,0,0
"29.07.2020 04:15","2020-07-29","04:15",1,0,1,0
"29.07.2020 04:30","2020-07-29","04:30",0,0,0,0
"29.07.2020 04:45","2020-07-29","04:45",0,0,1,0
"29.07.2020 05:00","2020-07-29","05:00",2,0,5,0
"29.07.2020 05:15","2020-07-29","05:15",2,0,0,0
"29.07.2020 05:30","2020-07-29","05:30",4,0,4,0
"29.07.2020 05:45","2020-07-29","05:45",17,0,9,0
"29.07.2020 06:00","2020-07-29","06:00",17,0,12,0
"29.07.2020 06:15","2020-07-29","06:15",16,0,12,0
"29.07.2020 06:30","2020-07-29","06:30",17,0,13,0
"29.07.2020 06:45","2020-07-29","06:45",23,0,20,0
"29.07.2020 07:00","2020-07-29","07:00",23,0,27,0
"29.07.2020 07:15","2020-07-29","07:15",25,0,41,0
"29.07.2020 07:30","2020-07-29","07:30",37,1,83,1
"29.07.2020 07:45","2020-07-29","07:45",61,1,61,1
"29.07.2020 08:00","2020-07-29","08:00",42,1,55,1
"29.07.2020 08:15","2020-07-29","08:15",54,1,68,1
"29.07.2020 08:30","2020-07-29","08:30",64,2,76,1
"29.07.2020 08:45","2020-07-29","08:45",91,2,57,1
"29.07.2020 09:00","2020-07-29","09:00",57,1,47,0
"29.07.2020 09:15","2020-07-29","09:15",58,1,54,1
"29.07.2020 09:30","2020-07-29","09:30",53,2,57,0
"29.07.2020 09:45","2020-07-29","09:45",86,2,47,1
"29.07.2020 10:00","2020-07-29","10:00",49,0,61,0
"29.07.2020 10:15","2020-07-29","10:15",65,1,51,1
"29.07.2020 10:30","2020-07-29","10:30",41,1,66,1
"29.07.2020 10:45","2020-07-29","10:45",61,1,60,1
"29.07.2020 11:00","2020-07-29","11:00",55,1,62,1
"29.07.2020 11:15","2020-07-29","11:15",71,1,51,1
"29.07.2020 11:30","2020-07-29","11:30",68,1,64,1
"29.07.2020 11:45","2020-07-29","11:45",62,2,74,1
"29.07.2020 12:00","2020-07-29","12:00",66,2,74,1
"29.07.2020 12:15","2020-07-29","12:15",72,1,74,2
"29.07.2020 12:30","2020-07-29","12:30",59,2,53,1
"29.07.2020 12:45","2020-07-29","12:45",48,2,69,1
"29.07.2020 13:00","2020-07-29","13:00",57,1,65,2
"29.07.2020 13:15","2020-07-29","13:15",52,1,59,1
"29.07.2020 13:30","2020-07-29","13:30",45,1,66,1
"29.07.2020 13:45","2020-07-29","13:45",66,1,65,2
"29.07.2020 14:00","2020-07-29","14:00",52,1,86,1
"29.07.2020 14:15","2020-07-29","14:15",70,2,71,1
"29.07.2020 14:30","2020-07-29","14:30",61,2,71,2
"29.07.2020 14:45","2020-07-29","14:45",62,2,90,2
"29.07.2020 15:00","2020-07-29","15:00",74,2,62,2
"29.07.2020 15:15","2020-07-29","15:15",55,1,91,2
"29.07.2020 15:30","2020-07-29","15:30",65,1,57,2
"29.07.2020 15:45","2020-07-29","15:45",49,1,95,2
"29.07.2020 16:00","2020-07-29","16:00",71,2,73,2
"29.07.2020 16:15","2020-07-29","16:15",69,3,83,1
"29.07.2020 16:30","2020-07-29","16:30",69,2,101,2
"29.07.2020 16:45","2020-07-29","16:45",76,1,63,2
"29.07.2020 17:00","2020-07-29","17:00",58,1,102,2
"29.07.2020 17:15","2020-07-29","17:15",88,2,69,2
"29.07.2020 17:30","2020-07-29","17:30",88,2,99,2
"29.07.2020 17:45","2020-07-29","17:45",81,2,82,2
"29.07.2020 18:00","2020-07-29","18:00",60,2,108,2
"29.07.2020 18:15","2020-07-29","18:15",71,2,80,2
"29.07.2020 18:30","2020-07-29","18:30",61,2,84,1
"29.07.2020 18:45","2020-07-29","18:45",62,2,99,2
"29.07.2020 19:00","2020-07-29","19:00",63,1,69,1
"29.07.2020 19:15","2020-07-29","19:15",55,2,68,1
"29.07.2020 19:30","2020-07-29","19:30",52,2,57,1
"29.07.2020 19:45","2020-07-29","19:45",45,1,70,1
"29.07.2020 20:00","2020-07-29","20:00",47,1,45,1
"29.07.2020 20:15","2020-07-29","20:15",41,1,36,1
"29.07.2020 20:30","2020-07-29","20:30",33,1,49,1
"29.07.2020 20:45","2020-07-29","20:45",41,1,42,0
"29.07.2020 21:00","2020-07-29","21:00",27,1,34,1
"29.07.2020 21:15","2020-07-29","21:15",35,1,32,1
"29.07.2020 21:30","2020-07-29","21:30",38,0,38,1
"29.07.2020 21:45","2020-07-29","21:45",38,1,31,1
"29.07.2020 22:00","2020-07-29","22:00",34,1,22,0
"29.07.2020 22:15","2020-07-29","22:15",27,1,19,1
"29.07.2020 22:30","2020-07-29","22:30",25,1,31,1
"29.07.2020 22:45","2020-07-29","22:45",30,0,21,0
"29.07.2020 23:00","2020-07-29","23:00",24,1,21,0
"29.07.2020 23:15","2020-07-29","23:15",33,1,12,0
"29.07.2020 23:30","2020-07-29","23:30",8,0,6,0
"29.07.2020 23:45","2020-07-29","23:45",6,0,7,1
"30.07.2020 00:00","2020-07-30","00:00",13,0,9,1
"30.07.2020 00:15","2020-07-30","00:15",10,0,5,0
"30.07.2020 00:30","2020-07-30","00:30",6,0,8,0
"30.07.2020 00:45","2020-07-30","00:45",6,0,3,0
"30.07.2020 01:00","2020-07-30","01:00",8,0,5,0
"30.07.2020 01:15","2020-07-30","01:15",11,0,5,0
"30.07.2020 01:30","2020-07-30","01:30",4,0,7,0
"30.07.2020 01:45","2020-07-30","01:45",3,0,6,0
"30.07.2020 02:00","2020-07-30","02:00",5,0,1,0
"30.07.2020 02:15","2020-07-30","02:15",2,0,1,0
"30.07.2020 02:30","2020-07-30","02:30",4,0,0,0
"30.07.2020 02:45","2020-07-30","02:45",0,0,0,0
"30.07.2020 03:00","2020-07-30","03:00",1,0,0,0
"30.07.2020 03:15","2020-07-30","03:15",0,0,3,0
"30.07.2020 03:30","2020-07-30","03:30",2,0,8,0
"30.07.2020 03:45","2020-07-30","03:45",2,0,1,0
"30.07.2020 04:00","2020-07-30","04:00",0,0,0,0
"30.07.2020 04:15","2020-07-30","04:15",2,0,0,0
"30.07.2020 04:30","2020-07-30","04:30",0,0,0,0
"30.07.2020 04:45","2020-07-30","04:45",1,0,1,0
"30.07.2020 05:00","2020-07-30","05:00",5,0,1,0
"30.07.2020 05:15","2020-07-30","05:15",1,0,1,0
"30.07.2020 05:30","2020-07-30","05:30",6,0,3,0
"30.07.2020 05:45","2020-07-30","05:45",10,0,6,0
"30.07.2020 06:00","2020-07-30","06:00",6,0,11,0
"30.07.2020 06:15","2020-07-30","06:15",15,0,8,0
"30.07.2020 06:30","2020-07-30","06:30",18,0,16,0
"30.07.2020 06:45","2020-07-30","06:45",16,0,20,0
"30.07.2020 07:00","2020-07-30","07:00",20,0,16,0
"30.07.2020 07:15","2020-07-30","07:15",33,0,37,0
"30.07.2020 07:30","2020-07-30","07:30",35,0,41,0
"30.07.2020 07:45","2020-07-30","07:45",51,1,60,1
"30.07.2020 08:00","2020-07-30","08:00",47,1,49,1
"30.07.2020 08:15","2020-07-30","08:15",46,1,61,1
"30.07.2020 08:30","2020-07-30","08:30",49,1,62,1
"30.07.2020 08:45","2020-07-30","08:45",65,1,68,1
"30.07.2020 09:00","2020-07-30","09:00",75,1,57,0
"30.07.2020 09:15","2020-07-30","09:15",56,2,42,0
"30.07.2020 09:30","2020-07-30","09:30",64,1,42,1
"30.07.2020 09:45","2020-07-30","09:45",53,2,56,1
"30.07.2020 10:00","2020-07-30","10:00",54,1,64,1
"30.07.2020 10:15","2020-07-30","10:15",65,2,51,1
"30.07.2020 10:30","2020-07-30","10:30",52,1,71,1
"30.07.2020 10:45","2020-07-30","10:45",69,1,68,1
"30.07.2020 11:00","2020-07-30","11:00",59,1,54,1
"30.07.2020 11:15","2020-07-30","11:15",58,1,57,1
"30.07.2020 11:30","2020-07-30","11:30",61,1,59,1
"30.07.2020 11:45","2020-07-30","11:45",70,1,55,1
"30.07.2020 12:00","2020-07-30","12:00",52,1,74,1
"30.07.2020 12:15","2020-07-30","12:15",52,1,68,1
"30.07.2020 12:30","2020-07-30","12:30",57,1,58,1
"30.07.2020 12:45","2020-07-30","12:45",49,1,72,1
"30.07.2020 13:00","2020-07-30","13:00",43,1,62,1
"30.07.2020 13:15","2020-07-30","13:15",55,1,61,1
"30.07.2020 13:30","2020-07-30","13:30",45,1,71,1
"30.07.2020 13:45","2020-07-30","13:45",57,0,50,1
"30.07.2020 14:00","2020-07-30","14:00",61,2,64,1
"30.07.2020 14:15","2020-07-30","14:15",59,1,64,1
"30.07.2020 14:30","2020-07-30","14:30",58,2,61,1
"30.07.2020 14:45","2020-07-30","14:45",61,1,61,2
"30.07.2020 15:00","2020-07-30","15:00",56,1,62,2
"30.07.2020 15:15","2020-07-30","15:15",69,2,62,1
"30.07.2020 15:30","2020-07-30","15:30",37,1,67,1
"30.07.2020 15:45","2020-07-30","15:45",68,2,83,2
"30.07.2020 16:00","2020-07-30","16:00",47,1,75,1
"30.07.2020 16:15","2020-07-30","16:15",54,2,68,1
"30.07.2020 16:30","2020-07-30","16:30",69,2,65,1
"30.07.2020 16:45","2020-07-30","16:45",64,2,75,1
"30.07.2020 17:00","2020-07-30","17:00",71,2,66,1
"30.07.2020 17:15","2020-07-30","17:15",68,1,110,2
"30.07.2020 17:30","2020-07-30","17:30",56,1,92,2
"30.07.2020 17:45","2020-07-30","17:45",70,2,95,3
"30.07.2020 18:00","2020-07-30","18:00",64,2,96,2
"30.07.2020 18:15","2020-07-30","18:15",62,2,90,2
"30.07.2020 18:30","2020-07-30","18:30",74,2,87,2
"30.07.2020 18:45","2020-07-30","18:45",59,2,97,2
"30.07.2020 19:00","2020-07-30","19:00",68,2,80,1
"30.07.2020 19:15","2020-07-30","19:15",52,1,85,1
"30.07.2020 19:30","2020-07-30","19:30",46,1,55,1
"30.07.2020 19:45","2020-07-30","19:45",47,1,50,1
"30.07.2020 20:00","2020-07-30","20:00",53,1,56,1
"30.07.2020 20:15","2020-07-30","20:15",41,0,59,1
"30.07.2020 20:30","2020-07-30","20:30",39,1,46,1
"30.07.2020 20:45","2020-07-30","20:45",29,0,37,1
"30.07.2020 21:00","2020-07-30","21:00",33,1,29,0
"30.07.2020 21:15","2020-07-30","21:15",33,1,41,1
"30.07.2020 21:30","2020-07-30","21:30",38,1,27,1
"30.07.2020 21:45","2020-07-30","21:45",26,0,22,1
"30.07.2020 22:00","2020-07-30","22:00",40,1,21,1
"30.07.2020 22:15","2020-07-30","22:15",24,1,24,0
"30.07.2020 22:30","2020-07-30","22:30",24,1,18,0
"30.07.2020 22:45","2020-07-30","22:45",32,1,25,0
"30.07.2020 23:00","2020-07-30","23:00",28,1,19,0
"30.07.2020 23:15","2020-07-30","23:15",13,0,24,0
"30.07.2020 23:30","2020-07-30","23:30",19,1,21,0
"30.07.2020 23:45","2020-07-30","23:45",16,0,9,0
"31.07.2020 00:00","2020-07-31","00:00",22,0,11,0
"31.07.2020 00:15","2020-07-31","00:15",18,1,9,0
"31.07.2020 00:30","2020-07-31","00:30",12,0,7,0
"31.07.2020 00:45","2020-07-31","00:45",4,0,4,0
"31.07.2020 01:00","2020-07-31","01:00",13,0,6,0
"31.07.2020 01:15","2020-07-31","01:15",4,0,4,0
"31.07.2020 01:30","2020-07-31","01:30",2,0,8,0
"31.07.2020 01:45","2020-07-31","01:45",4,0,1,0
"31.07.2020 02:00","2020-07-31","02:00",6,0,1,0
"31.07.2020 02:15","2020-07-31","02:15",4,0,1,0
"31.07.2020 02:30","2020-07-31","02:30",2,0,1,0
"31.07.2020 02:45","2020-07-31","02:45",5,0,3,0
"31.07.2020 03:00","2020-07-31","03:00",4,0,0,0
"31.07.2020 03:15","2020-07-31","03:15",1,0,2,0
"31.07.2020 03:30","2020-07-31","03:30",2,0,1,0
"31.07.2020 03:45","2020-07-31","03:45",4,0,0,0
"31.07.2020 04:00","2020-07-31","04:00",0,0,0,0
"31.07.2020 04:15","2020-07-31","04:15",0,0,0,0
"31.07.2020 04:30","2020-07-31","04:30",0,0,2,0
"31.07.2020 04:45","2020-07-31","04:45",1,0,3,0
"31.07.2020 05:00","2020-07-31","05:00",2,0,1,0
"31.07.2020 05:15","2020-07-31","05:15",2,0,0,0
"31.07.2020 05:30","2020-07-31","05:30",7,0,3,0
"31.07.2020 05:45","2020-07-31","05:45",8,0,9,0
"31.07.2020 06:00","2020-07-31","06:00",13,0,5,0
"31.07.2020 06:15","2020-07-31","06:15",12,0,12,0
"31.07.2020 06:30","2020-07-31","06:30",19,0,12,0
"31.07.2020 06:45","2020-07-31","06:45",19,0,22,0
"31.07.2020 07:00","2020-07-31","07:00",20,0,24,0
"31.07.2020 07:15","2020-07-31","07:15",24,0,43,0
"31.07.2020 07:30","2020-07-31","07:30",34,0,47,1
"31.07.2020 07:45","2020-07-31","07:45",49,1,66,1
"31.07.2020 08:00","2020-07-31","08:00",37,0,52,0
"31.07.2020 08:15","2020-07-31","08:15",40,1,46,1
"31.07.2020 08:30","2020-07-31","08:30",60,1,69,1
"31.07.2020 08:45","2020-07-31","08:45",79,2,63,1
"31.07.2020 09:00","2020-07-31","09:00",63,1,58,1
"31.07.2020 09:15","2020-07-31","09:15",73,1,65,1
"31.07.2020 09:30","2020-07-31","09:30",62,2,42,1
"31.07.2020 09:45","2020-07-31","09:45",64,1,76,1
"31.07.2020 10:00","2020-07-31","10:00",75,2,55,1
"31.07.2020 10:15","2020-07-31","10:15",57,1,70,1
"31.07.2020 10:30","2020-07-31","10:30",72,2,59,1
"31.07.2020 10:45","2020-07-31","10:45",52,1,68,1
"31.07.2020 11:00","2020-07-31","11:00",54,1,64,2
"31.07.2020 11:15","2020-07-31","11:15",60,1,62,1
"31.07.2020 11:30","2020-07-31","11:30",59,1,73,1
"31.07.2020 11:45","2020-07-31","11:45",70,1,75,0
"31.07.2020 12:00","2020-07-31","12:00",70,1,72,1
"31.07.2020 12:15","2020-07-31","12:15",51,1,66,1
"31.07.2020 12:30","2020-07-31","12:30",57,1,66,2
"31.07.2020 12:45","2020-07-31","12:45",47,1,66,1
"31.07.2020 13:00","2020-07-31","13:00",60,1,96,2
"31.07.2020 13:15","2020-07-31","13:15",42,1,69,1
"31.07.2020 13:30","2020-07-31","13:30",53,1,71,1
"31.07.2020 13:45","2020-07-31","13:45",60,1,64,1
"31.07.2020 14:00","2020-07-31","14:00",56,1,63,1
"31.07.2020 14:15","2020-07-31","14:15",49,1,62,1
"31.07.2020 14:30","2020-07-31","14:30",45,1,62,2
"31.07.2020 14:45","2020-07-31","14:45",57,1,76,1
"31.07.2020 15:00","2020-07-31","15:00",54,1,76,1
"31.07.2020 15:15","2020-07-31","15:15",46,1,70,1
"31.07.2020 15:30","2020-07-31","15:30",47,1,59,1
"31.07.2020 15:45","2020-07-31","15:45",71,1,70,1
"31.07.2020 16:00","2020-07-31","16:00",45,1,62,1
"31.07.2020 16:15","2020-07-31","16:15",71,1,57,1
"31.07.2020 16:30","2020-07-31","16:30",58,1,57,1
"31.07.2020 16:45","2020-07-31","16:45",55,2,74,1
"31.07.2020 17:00","2020-07-31","17:00",48,1,60,1
"31.07.2020 17:15","2020-07-31","17:15",49,1,85,1
"31.07.2020 17:30","2020-07-31","17:30",59,1,60,2
"31.07.2020 17:45","2020-07-31","17:45",51,1,79,2
"31.07.2020 18:00","2020-07-31","18:00",60,1,59,1
"31.07.2020 18:15","2020-07-31","18:15",59,1,56,1
"31.07.2020 18:30","2020-07-31","18:30",63,1,70,1
"31.07.2020 18:45","2020-07-31","18:45",71,2,66,2
"31.07.2020 19:00","2020-07-31","19:00",49,2,67,1
"31.07.2020 19:15","2020-07-31","19:15",45,1,69,2
"31.07.2020 19:30","2020-07-31","19:30",38,1,49,1
"31.07.2020 19:45","2020-07-31","19:45",39,1,58,1
"31.07.2020 20:00","2020-07-31","20:00",45,1,64,2
"31.07.2020 20:15","2020-07-31","20:15",52,1,54,1
"31.07.2020 20:30","2020-07-31","20:30",40,0,40,1
"31.07.2020 20:45","2020-07-31","20:45",16,0,41,1
"31.07.2020 21:00","2020-07-31","21:00",30,1,39,1
"31.07.2020 21:15","2020-07-31","21:15",32,1,34,1
"31.07.2020 21:30","2020-07-31","21:30",40,1,41,1
"31.07.2020 21:45","2020-07-31","21:45",24,1,42,1
"31.07.2020 22:00","2020-07-31","22:00",22,1,15,0
"31.07.2020 22:15","2020-07-31","22:15",24,0,20,0
"31.07.2020 22:30","2020-07-31","22:30",23,0,12,0
"31.07.2020 22:45","2020-07-31","22:45",23,0,8,0
"31.07.2020 23:00","2020-07-31","23:00",23,1,15,0
"31.07.2020 23:15","2020-07-31","23:15",21,0,28,0
"31.07.2020 23:30","2020-07-31","23:30",23,0,18,0
"31.07.2020 23:45","2020-07-31","23:45",26,0,12,0
"01.08.2020 00:00","2020-08-01","00:00",11,0,10,0
"01.08.2020 00:15","2020-08-01","00:15",12,0,18,0
"01.08.2020 00:30","2020-08-01","00:30",10,0,15,1
"01.08.2020 00:45","2020-08-01","00:45",13,0,12,0
"01.08.2020 01:00","2020-08-01","01:00",15,0,18,0
"01.08.2020 01:15","2020-08-01","01:15",11,0,11,0
"01.08.2020 01:30","2020-08-01","01:30",13,0,8,0
"01.08.2020 01:45","2020-08-01","01:45",17,0,4,0
"01.08.2020 02:00","2020-08-01","02:00",10,0,14,1
"01.08.2020 02:15","2020-08-01","02:15",3,0,1,0
"01.08.2020 02:30","2020-08-01","02:30",5,0,1,0
"01.08.2020 02:45","2020-08-01","02:45",4,0,11,0
"01.08.2020 03:00","2020-08-01","03:00",4,0,6,0
"01.08.2020 03:15","2020-08-01","03:15",7,0,5,0
"01.08.2020 03:30","2020-08-01","03:30",6,0,3,0
"01.08.2020 03:45","2020-08-01","03:45",4,0,3,0
"01.08.2020 04:00","2020-08-01","04:00",0,0,0,0
"01.08.2020 04:15","2020-08-01","04:15",4,0,1,0
"01.08.2020 04:30","2020-08-01","04:30",1,0,5,0
"01.08.2020 04:45","2020-08-01","04:45",0,0,1,0
"01.08.2020 05:00","2020-08-01","05:00",0,0,2,0
"01.08.2020 05:15","2020-08-01","05:15",1,0,0,0
"01.08.2020 05:30","2020-08-01","05:30",2,0,0,0
"01.08.2020 05:45","2020-08-01","05:45",7,0,5,0
"01.08.2020 06:00","2020-08-01","06:00",7,0,2,0
"01.08.2020 06:15","2020-08-01","06:15",9,0,1,0
"01.08.2020 06:30","2020-08-01","06:30",5,0,5,0
"01.08.2020 06:45","2020-08-01","06:45",1,0,9,0
"01.08.2020 07:00","2020-08-01","07:00",10,0,7,0
"01.08.2020 07:15","2020-08-01","07:15",9,0,11,0
"01.08.2020 07:30","2020-08-01","07:30",12,0,19,0
"01.08.2020 07:45","2020-08-01","07:45",9,0,28,0
"01.08.2020 08:00","2020-08-01","08:00",15,0,9,0
"01.08.2020 08:15","2020-08-01","08:15",11,0,21,0
"01.08.2020 08:30","2020-08-01","08:30",32,1,26,0
"01.08.2020 08:45","2020-08-01","08:45",43,1,25,0
"01.08.2020 09:00","2020-08-01","09:00",42,1,34,1
"01.08.2020 09:15","2020-08-01","09:15",36,1,41,1
"01.08.2020 09:30","2020-08-01","09:30",63,1,40,1
"01.08.2020 09:45","2020-08-01","09:45",51,1,47,1
"01.08.2020 10:00","2020-08-01","10:00",50,2,47,1
"01.08.2020 10:15","2020-08-01","10:15",42,1,66,1
"01.08.2020 10:30","2020-08-01","10:30",42,1,58,1
"01.08.2020 10:45","2020-08-01","10:45",49,1,67,2
"01.08.2020 11:00","2020-08-01","11:00",52,2,61,1
"01.08.2020 11:15","2020-08-01","11:15",72,2,47,1
"01.08.2020 11:30","2020-08-01","11:30",39,1,57,1
"01.08.2020 11:45","2020-08-01","11:45",53,1,75,1
"01.08.2020 12:00","2020-08-01","12:00",57,1,49,1
"01.08.2020 12:15","2020-08-01","12:15",45,1,33,1
"01.08.2020 12:30","2020-08-01","12:30",49,1,37,1
"01.08.2020 12:45","2020-08-01","12:45",46,1,51,1
"01.08.2020 13:00","2020-08-01","13:00",64,2,44,1
"01.08.2020 13:15","2020-08-01","13:15",36,0,42,0
"01.08.2020 13:30","2020-08-01","13:30",46,1,53,1
"01.08.2020 13:45","2020-08-01","13:45",49,1,35,1
"01.08.2020 14:00","2020-08-01","14:00",45,1,42,1
"01.08.2020 14:15","2020-08-01","14:15",46,1,55,1
"01.08.2020 14:30","2020-08-01","14:30",24,0,49,1
"01.08.2020 14:45","2020-08-01","14:45",37,1,40,1
"01.08.2020 15:00","2020-08-01","15:00",31,1,43,1
"01.08.2020 15:15","2020-08-01","15:15",30,0,45,1
"01.08.2020 15:30","2020-08-01","15:30",44,1,43,1
"01.08.2020 15:45","2020-08-01","15:45",42,1,59,1
"01.08.2020 16:00","2020-08-01","16:00",30,1,47,1
"01.08.2020 16:15","2020-08-01","16:15",45,1,54,1
"01.08.2020 16:30","2020-08-01","16:30",55,1,42,1
"01.08.2020 16:45","2020-08-01","16:45",52,2,35,1
"01.08.2020 17:00","2020-08-01","17:00",46,1,54,1
"01.08.2020 17:15","2020-08-01","17:15",61,1,48,1
"01.08.2020 17:30","2020-08-01","17:30",66,2,46,0
"01.08.2020 17:45","2020-08-01","17:45",47,2,45,2
"01.08.2020 18:00","2020-08-01","18:00",57,1,46,1
"01.08.2020 18:15","2020-08-01","18:15",38,1,60,1
"01.08.2020 18:30","2020-08-01","18:30",52,1,31,0
"01.08.2020 18:45","2020-08-01","18:45",55,2,51,1
"01.08.2020 19:00","2020-08-01","19:00",30,1,52,1
"01.08.2020 19:15","2020-08-01","19:15",27,1,43,1
"01.08.2020 19:30","2020-08-01","19:30",32,1,33,1
"01.08.2020 19:45","2020-08-01","19:45",27,1,48,1
"01.08.2020 20:00","2020-08-01","20:00",42,1,27,0
"01.08.2020 20:15","2020-08-01","20:15",24,0,50,1
"01.08.2020 20:30","2020-08-01","20:30",16,0,32,0
"01.08.2020 20:45","2020-08-01","20:45",31,1,36,1
"01.08.2020 21:00","2020-08-01","21:00",17,1,20,0
"01.08.2020 21:15","2020-08-01","21:15",19,1,34,0